GFSFLT1_prec_cloud_147.txt.gz
Cloud_Cover
95 100 100 100 100 100 100 96 71 11 8 16 75 100 100 98 100 99 88 12 5 5 5 0 0 0 1 0 0 1 38 0
100 100 100 100 100 100 100 97 100 45 2 3 0 5 100 100 100 100 99 20 5 0 0 0 0 0 0 0 0 0 0 4
100 100 100 100 100 51 47 4 17 16 4 0 0 1 8 100 100 86 56 38 48 8 2 0 0 0 0 0 0 0 0 0
93 92 87 87 30 4 2 4 5 5 0 3 11 42 55 10 25 81 86 90 5 3 5 5 5 5 5 5 5 5 18 2
5 5 5 5 5 5 5 5 5 5 5 5 92 16 15 9 5 5 5 5 5 5 5 5 5 5 5 5 5 5 23 59
19 92 100 100 16 5 5 9 97 89 100 100 73 6 94 5 5 5 5 5 5 5 5 5 5 5 7 6 20 8 11 51
100 100 96 60 52 28 13 89 94 94 100 66 5 5 6 70 53 5 5 5 5 5 5 5 5 5 22 70 99 74 8 7
21 82 78 16 95 10 88 100 100 100 100 50 99 99 100 100 100 23 5 12 5 5 5 5 9 65 99 94 79 96 62 45
4 5 25 51 100 95 100 100 26 45 90 99 90 100 71 18 74 30 32 91 28 45 48 47 55 6 61 100 79 5 5 5
6 78 100 100 100 100 100 100 100 100 100 100 100 100 100 93 58 100 99 80 100 98 100 35 5 6 5 5 5 5 5 5
100 100 100 100 100 100 74 99 100 100 100 100 100 74 79 99 84 92 27 100 100 68 100 100 44 20 13 33 5 5 5 5
100 100 100 100 100 100 100 76 100 100 100 100 96 87 95 74 80 89 14 100 79 24 5 5 5 5 15 5 5 5 57 5
100 100 100 100 100 100 100 81 22 98 100 100 100 100 100 100 98 97 100 77 47 86 71 74 5 8 5 5 5 6 100 99
100 99 100 97 100 100 100 100 100 100 100 100 100 100 100 100 100 100 100 100 100 100 100 87 99 5 5 35 89 76 20 77
100 82 82 100 100 100 100 97 100 100 95 91 100 100 100 73 94 100 100 100 100 100 100 80 41 5 5 51 100 98 80 76
100 100 100 100 100 100 100 100 100 100 100 100 100 100 100 94 26 30 100 100 78 69 5 7 96 26 5 65 61 80 100 100
100 100 100 100 100 100 100 100 100 100 100 99 100 100 30 31 5 17 36 6 5 5 5 5 5 84 77 27 66 53 100 100
100 100 100 78 97 94 100 100 100 97 5 72 86 5 5 11 37 47 93 59 6 29 18 10 5 66 92 30 93 84 100 100
100 100 95 36 71 100 100 100 100 49 59 39 26 69 47 58 84 100 100 100 100 83 54 63 91 100 92 62 63 100 100 100

GFSFLT1_prec_cloud_153.txt.gz
Cloud_Cover
5 5 5 6 97 70 15 11 5 5 72 11 1 0 0 0 3 6 4 0 57 65 62 99 98 96 68 76 59 5 29 13
71 39 8 45 5 5 5 8 92 58 5 5 5 5 5 5 5 0 0 4 1 5 5 63 30 100 100 100 96 20 6 4
56 35 64 52 13 46 72 24 38 23 57 13 5 5 5 5 5 2 0 7 76 94 100 94 80 29 31 19 6 2 0 0
99 100 55 52 65 94 100 100 96 76 50 6 3 5 5 6 27 5 1 28 52 17 60 100 6 31 5 5 5 5 5 5
100 89 70 100 100 100 100 67 34 38 5 5 33 5 5 5 5 0 0 5 59 28 14 25 20 6 5 5 5 5 5 5
14 5 6 92 100 100 86 99 95 86 5 8 5 5 5 5 4 5 5 5 6 100 84 99 14 5 5 5 5 5 7 5
5 6 12 39 57 19 12 53 32 41 16 44 32 7 25 71 83 100 100 100 100 100 100 93 87 57 40 48 57 61 31 5
64 100 100 100 88 58 47 66 43 97 98 58 95 98 95 98 100 100 100 100 100 100 100 100 94 19 72 48 42 78 82 5
100 99 100 100 100 93 100 100 100 100 100 100 100 100 100 100 100 100 100 100 100 100 100 100 22 37 21 5 5 10 91 25
70 100 100 100 100 87 100 100 100 99 92 100 100 100 100 100 100 100 100 100 100 100 80 56 48 5 5 5 5 100 100 100
17 97 100 100 100 98 100 96 100 100 100 100 100 100 100 100 100 100 100 100 73 72 27 40 89 70 99 100 100 57 70 98
5 5 56 98 100 100 100 100 100 100 100 100 100 100 100 100 100 100 73 61 7 6 86 99 100 100 100 100 100 100 100 94
100 100 100 100 100 100 100 100 100 100 100 100 100 100 100 48 92 99 63 13 70 100 80 92 7 34 76 26 52 98 90 19
100 100 100 100 100 100 100 100 100 100 91 100 100 100 77 92 94 98 100 76 5 20 3 4 1 0 5 5 5 5 5 5
100 100 100 100 100 100 100 100 100 100 99 100 100 100 77 100 100 100 100 79 14 5 5 5 4 5 33 6 56 11 7 6
100 100 100 100 100 100 100 100 100 100 100 100 100 100 100 100 100 100 100 13 5 5 5 5 5 5 5 5 5 77 63 40
100 100 100 100 100 100 100 100 100 100 100 100 100 100 100 100 100 82 86 52 5 30 20 5 6 51 90 51 38 71 64 68
100 100 100 100 100 100 100 100 100 100 100 100 100 100 100 99 63 78 84 72 28 6 24 50 90 95 95 76 53 88 95 96
100 100 100 100 100 100 100 100 100 100 100 100 100 100 97 74 76 90 91 81 76 86 78 85 92 93 94 67 5 37 91 98

GFSFLT1_prec_cloud_156.txt.gz
Cloud_Cover
100 79 71 72 99 94 5 5 5 5 11 5 27 39 15 5 6 7 5 5 0 0 0 0 1 2 100 32 5 6 83 99
100 100 100 100 94 36 82 76 63 5 5 6 12 5 5 18 5 29 5 2 0 4 5 5 0 3 24 3 51 100 100 94
100 100 100 100 100 100 100 40 37 7 5 5 5 21 17 5 5 5 5 5 4 4 5 4 5 4 4 8 24 68 83 94
100 100 100 100 100 100 86 71 37 12 61 48 11 8 5 5 5 5 5 23 33 5 5 5 5 5 7 27 79 9 10 90
100 100 100 97 95 98 96 23 43 64 18 66 48 49 78 62 21 5 96 100 100 5 25 88 57 82 76 100 100 58 94 98
100 100 100 64 74 76 74 75 94 86 98 98 99 68 10 5 5 5 5 11 32 97 99 100 100 100 100 100 100 100 100 95
100 100 100 99 100 100 100 30 5 27 46 27 23 100 48 5 5 100 60 33 94 95 98 100 100 100 100 95 48 98 100 100
100 88 100 100 100 100 100 100 100 96 82 88 91 89 86 71 50 95 99 100 100 100 100 100 100 100 100 100 100 100 100 20
100 100 100 100 100 100 100 100 100 100 100 100 100 100 100 100 100 100 100 100 100 100 100 100 100 100 100 100 100 86 5 5
100 100 100 100 100 75 91 97 94 100 100 100 100 100 100 100 100 99 100 100 100 100 100 100 100 100 100 88 47 4 3 5
100 100 80 62 100 100 100 100 100 100 100 97 100 100 100 100 100 100 100 100 100 100 100 100 100 68 5 3 3 77 81 100
94 99 100 100 100 100 100 100 100 100 100 100 100 100 100 100 100 100 100 100 100 100 100 46 5 5 4 0 0 4 5 5
56 92 100 100 100 100 100 100 100 100 100 100 100 100 100 100 100 100 100 100 91 11 92 98 100 5 5 0 0 0 0 0
100 100 100 100 100 100 100 100 100 100 100 100 100 100 100 100 100 92 95 100 71 100 100 92 16 7 4 0 0 0 0 2
100 100 100 100 100 100 100 100 100 100 100 100 100 100 100 100 100 100 90 84 100 100 100 48 2 0 0 0 5 5 10 15
100 100 100 100 100 100 100 100 100 100 100 100 100 100 100 100 100 100 100 100 99 18 5 5 1 3 4 5 5 5 5 5
100 100 100 100 100 100 100 100 100 100 100 100 100 100 100 100 100 100 100 100 83 5 5 5 5 5 6 5 5 5 6 10
100 100 100 100 100 100 100 100 100 100 100 100 100 100 100 100 100 100 79 27 29 51 84 79 87 96 50 5 11 86 97 99
100 100 100 100 100 100 100 100 100 100 100 100 100 100 100 100 100 98 88 100 93 98 92 100 100 91 91 6 33 99 100 100

GFSFLT1_prec_cloud_159.txt.gz
Cloud_Cover
100 100 100 100 100 100 100 100 100 100 100 63 5 5 31 93 97 94 67 29 61 92 89 13 15 35 4 5 2 1 0 0
100 100 100 100 100 100 100 100 100 100 100 100 71 5 79 98 100 87 39 9 13 7 5 5 5 5 5 96 100 73 0 2
100 100 100 100 100 100 100 100 100 100 100 90 94 37 16 7 6 41 24 26 34 30 100 61 14 7 5 5 29 17 65 100
100 100 100 100 100 100 100 100 100 100 100 78 91 68 42 87 46 28 31 71 66 36 88 5 3 0 5 40 5 15 5 4
100 100 100 100 100 100 100 100 100 100 100 100 99 100 100 76 97 100 72 100 48 6 25 6 60 5 5 19 41 9 41 5
100 100 100 100 100 100 100 100 99 100 70 96 100 60 99 90 70 20 10 7 5 18 10 96 100 100 42 100 90 63 80 100
100 100 100 100 100 100 100 83 80 81 89 100 100 100 99 94 69 71 94 100 96 37 44 100 100 100 100 100 100 100 100 100
100 100 100 100 100 100 100 100 100 100 100 96 100 100 100 100 100 100 100 100 100 100 100 100 100 100 100 100 100 100 100 100
100 100 90 100 100 100 100 100 100 100 100 100 100 100 100 100 100 100 100 100 100 100 100 100 100 100 100 100 100 100 100 41
100 100 100 100 100 100 100 100 100 100 100 100 100 100 100 100 100 100 100 100 100 100 100 100 100 100 100 100 100 99 99 94
100 100 93 93 100 82 88 100 97 100 85 89 100 100 100 100 100 100 100 100 100 100 100 100 100 100 100 100 59 43 8 0
100 100 100 100 100 100 100 100 100 100 98 97 100 100 100 100 100 100 100 100 100 100 100 100 100 100 97 55 13 2 0 0
100 100 91 100 100 100 100 100 100 100 100 100 100 100 100 100 100 100 100 100 100 100 100 100 100 29 6 1 0 0 0 0
92 98 100 91 100 100 100 100 100 100 100 100 100 100 100 100 100 100 100 100 100 100 100 100 82 100 6 3 5 2 0 0
100 100 100 100 100 100 100 100 100 100 100 100 100 100 100 100 100 100 100 100 100 100 85 86 19 70 100 12 4 3 0 4
100 100 100 100 100 100 100 100 100 100 100 100 100 100 100 100 100 100 93 100 86 93 100 100 100 100 79 4 5 1 3 21
100 100 100 100 100 100 100 100 100 96 100 100 100 100 100 100 100 100 100 100 100 100 100 100 100 5 5 5 3 5 26 35
100 100 100 100 100 100 100 100 100 100 100 100 100 100 100 100 100 100 100 100 100 100 100 100 88 100 5 5 30 79 100 100
78 7 63 100 100 100 100 100 100 100 100 100 100 100 100 100 100 100 100 100 100 100 100 100 97 95 15 5 65 93 100 100

GFSFLT1_prec_cloud_162.txt.gz
Cloud_Cover
100 100 100 100 100 100 100 100 100 100 100 100 100 100 100 100 100 100 100 31 11 84 72 7 5 47 81 90 33 5 23 5
96 100 100 100 100 100 100 100 100 100 100 100 100 100 100 100 100 100 49 74 84 69 19 46 36 4 5 4 3 0 2 3
22 93 100 100 100 100 100 100 100 100 100 100 100 100 100 100 100 100 100 100 50 94 89 28 7 23 5 6 5 5 12 5
0 6 49 100 100 100 100 100 100 100 100 100 100 100 100 100 100 100 100 79 80 94 92 100 100 64 14 71 34 7 39 10
74 5 91 95 97 100 100 100 100 100 100 100 100 100 100 100 66 24 84 100 91 77 100 100 83 23 83 63 40 7 7 39
16 5 97 100 100 100 100 100 100 100 100 100 100 43 51 40 77 42 58 100 100 100 100 98 77 96 75 82 8 39 53 89
62 90 100 100 100 100 100 100 100 100 100 100 100 100 100 100 100 100 100 95 60 56 61 65 82 100 89 89 100 84 100 100
52 98 100 100 100 100 100 100 100 100 100 100 100 100 100 100 100 100 100 100 97 98 100 100 100 100 100 98 100 100 100 100
100 100 100 100 100 100 100 100 100 100 100 100 100 100 97 100 89 97 100 83 82 100 100 100 100 100 100 100 100 98 100 100
100 100 100 100 100 100 100 100 100 100 100 100 100 100 100 100 99 100 97 96 100 100 100 100 100 100 100 100 100 100 100 100
100 100 100 100 100 100 100 100 100 100 100 100 100 100 100 100 100 100 100 99 100 100 100 100 100 100 100 100 100 100 100 100
100 100 100 100 100 100 100 100 99 100 100 100 100 100 100 100 100 100 100 100 100 100 100 100 100 100 100 100 100 100 100 100
100 100 100 100 100 100 100 100 100 100 100 100 100 100 100 100 100 100 100 100 100 100 100 100 100 100 100 100 100 100 13 5
100 100 100 100 100 100 100 100 100 100 100 100 100 100 100 100 100 100 100 100 100 100 100 100 100 100 100 100 42 8 5 5
100 100 100 100 100 100 100 100 100 100 100 100 100 100 100 100 100 100 100 100 100 100 86 100 100 100 76 45 78 60 100 100
100 100 100 100 100 100 100 100 100 100 100 100 100 100 100 100 100 100 100 100 100 100 100 100 97 98 93 99 100 94 100 71
100 100 100 100 100 100 100 100 100 100 100 100 100 100 100 100 100 100 100 100 100 100 99 100 100 100 100 100 100 100 100 92
100 100 100 98 92 96 100 100 100 100 100 100 100 100 100 100 100 100 100 100 100 100 100 100 100 100 100 100 100 46 7 5
5 5 5 12 90 15 5 67 15 87 100 100 100 100 100 100 100 100 100 100 100 100 100 100 100 100 100 100 40 5 5 79

GFSFLT1_prec_cloud_168.txt.gz
Cloud_Cover
61 28 71 87 66 100 38 8 2 91 100 64 100 100 100 100 100 100 100 100 100 100 100 100 100 100 100 100 100 100 100 59
95 74 39 61 35 94 100 93 8 64 81 23 5 81 100 100 100 100 100 100 100 100 100 100 100 100 100 100 100 100 100 97
5 5 19 100 100 96 41 5 38 44 11 5 14 14 82 100 97 100 100 100 100 100 100 100 100 100 100 100 100 100 96 27
5 5 5 83 100 98 98 100 100 72 11 64 14 47 53 53 28 47 94 71 92 100 83 100 97 99 100 100 100 52 76 77
5 77 98 99 100 100 100 100 85 88 67 66 28 94 79 93 84 100 97 98 34 64 98 100 100 100 100 100 93 90 92 63
96 72 36 44 78 100 100 100 100 45 100 64 97 98 54 100 100 100 100 100 100 100 100 100 100 100 100 100 100 99 99 100
79 47 36 100 100 100 100 100 100 100 100 100 100 100 100 100 100 100 100 100 91 100 99 67 99 100 99 100 100 100 100 100
100 100 78 100 100 100 100 95 100 100 100 100 100 98 100 100 100 100 98 100 100 100 100 100 100 100 100 100 100 100 100 100
100 100 100 100 100 100 100 100 100 100 100 100 100 100 97 100 100 100 100 100 100 100 100 100 100 100 100 100 100 100 100 100
100 100 100 100 100 100 100 100 100 100 100 100 100 100 100 100 100 85 100 100 100 100 100 100 100 100 100 100 93 100 100 100
97 100 100 100 100 100 100 100 100 100 100 100 100 100 100 100 100 100 100 100 100 100 100 100 100 100 100 100 100 100 100 100
100 100 100 100 100 100 100 100 100 100 100 100 100 100 100 100 100 100 100 100 100 100 100 100 100 100 100 100 100 100 100 100
100 100 100 100 100 100 100 100 100 100 100 100 100 100 100 100 100 100 100 100 100 100 100 100 100 100 100 100 100 100 100 100
100 100 100 100 100 100 100 100 100 100 100 100 100 100 100 100 100 100 100 100 100 100 100 100 100 100 100 100 100 100 100 100
100 100 100 100 100 100 100 100 100 100 100 100 100 100 100 100 100 100 100 100 100 100 100 100 100 100 100 97 100 100 100 100
100 100 100 100 100 100 100 100 100 100 100 100 100 100 100 100 100 100 100 100 100 100 100 100 100 100 100 100 100 100 100 100
100 100 100 99 39 19 54 74 99 99 98 100 100 100 100 100 100 100 100 100 100 100 100 100 100 100 100 100 100 100 100 100
100 99 90 75 83 43 15 5 3 2 50 98 100 98 100 100 100 100 100 100 100 100 100 100 100 100 100 100 100 100 100 100
42 33 54 92 88 18 5 5 5 11 82 100 98 99 100 100 100 100 100 100 100 100 100 100 100 100 100 100 100 100 100 100

GFSFLT1_prec_cloud_171.txt.gz
Cloud_Cover
100 100 66 58 100 100 100 78 22 23 99 99 100 98 49 26 4 5 5 36 98 100 100 100 100 100 100 100 100 100 100 100
100 100 18 37 98 100 92 89 100 100 100 100 100 100 100 88 5 92 13 5 5 100 100 100 100 100 100 100 100 100 100 100
100 100 100 100 100 100 97 51 100 100 100 100 100 100 100 100 81 99 97 40 58 51 82 100 100 100 100 100 100 100 90 99
100 100 100 100 100 100 95 100 89 80 100 100 100 100 93 58 95 59 79 89 87 51 83 52 98 100 100 100 100 100 100 100
34 61 100 100 100 100 100 100 100 100 100 100 100 100 100 65 83 97 100 100 38 26 78 99 100 83 100 100 98 91 100 98
73 100 100 100 100 100 100 100 100 100 100 100 100 100 100 100 98 68 62 81 97 73 69 98 100 100 92 100 100 100 100 100
21 35 82 100 100 100 100 100 100 100 100 100 100 100 97 97 74 92 72 100 90 99 98 100 100 100 100 100 100 100 100 100
32 98 100 100 100 100 100 100 100 100 100 100 100 100 100 100 100 93 100 76 92 97 94 100 100 100 100 100 100 99 100 100
100 100 100 100 100 100 100 100 100 100 100 100 100 100 100 100 100 100 100 100 100 100 100 100 100 100 100 96 99 95 100 100
100 100 100 100 100 100 100 100 100 100 100 100 100 100 100 100 100 100 100 100 100 100 100 100 100 100 100 100 100 100 79 98
100 100 100 100 100 100 100 100 100 100 100 100 100 100 100 100 100 100 100 100 100 100 100 100 100 100 100 100 100 100 100 100
15 56 54 100 100 100 100 100 100 100 100 100 100 100 100 100 100 100 100 100 100 100 100 100 100 100 100 100 100 100 100 100
99 100 64 99 100 100 100 100 100 100 100 100 100 100 100 100 100 100 100 100 100 100 100 100 100 100 100 100 100 100 100 100
100 100 100 100 100 100 100 100 100 100 100 100 100 100 100 100 100 100 100 100 100 100 100 100 100 100 100 100 100 100 100 100
100 100 100 100 100 100 100 100 100 100 100 100 100 100 100 100 100 100 100 100 100 100 100 100 100 100 100 100 100 100 100 100
36 18 20 55 87 90 71 60 37 55 69 54 90 100 100 100 100 100 100 100 100 100 100 100 100 100 100 100 100 100 100 100
80 100 100 100 94 28 6 77 95 100 100 100 100 18 33 18 86 100 100 100 100 100 100 100 100 100 100 100 100 100 100 100
100 100 100 100 100 100 100 100 100 100 100 98 97 72 83 100 100 100 100 100 100 100 100 100 100 100 100 100 100 100 100 100
84 100 100 99 87 81 57 10 42 65 62 98 100 100 100 100 100 100 100 100 100 100 100 100 100 100 100 100 100 100 100 100